Wainwright, AK

2:36 PM AKDT on March 30, 2017 (GMT -0800)
Wainwright

Weather History for PAWI - October, 2013

Change the Weather History Date:

Wednesday, October 16, 2013

  Actual Average (PABR) Record (PABR)
Temperature  
Mean Temperature 28 °F -  
Max Temperature 32 °F 18 °F 38 °F (1984)
Min Temperature 23 °F 10 °F -17 °F (1988)
Degree Days  
Heating Degree Days 38    
Moisture  
Dew Point 25 °F    
Average Humidity 89    
Maximum Humidity 93    
Minimum Humidity 86    
Precipitation  
Precipitation 0.00 in - - ()
Sea Level Pressure  
Sea Level Pressure 29.80 in    
Wind  
Wind Speed 12 mph (ENE)    
Max Wind Speed 25 mph    
Max Gust Speed 31 mph    
Visibility 6 miles    
Events Fog , Rain    
Averages and records for this station are not official NWS values.
T = Trace of Precipitation, MM = Missing Value Source: NWS Daily Summary

Daily Weather History Graph

Daily Weather History Graph

Search for Another Location

Airport or City:

Trip Planner

Search our weather history database for the weather conditions in past years. The results will help you decide how hot, cold, wet, or windy it might be!

Date:

Astronomy

Oct. 16, 2013 Rise Set
Actual Time 10:02 AM AKDT 6:45 PM AKDT
Civil Twilight 8:57 AM AKDT 7:51 PM AKDT
Nautical Twilight 7:44 AM AKDT 9:04 PM AKDT
Astronomical Twilight 6:28 AM AKDT 10:19 PM AKDT
Moon 6:20 PM AKDT (10/16) 6:38 AM AKDT (10/16)
Length of Visible Light 10h 54m
Length of Day
8h 42m
Waxing Gibbous, 95% of the Moon is Illuminated
Oct 16
Waxing Gibbous
Oct 18
Full
Oct 26
Last Quarter
Nov 3
New
Nov 9
First Quarter

Hourly Weather History & Observations

Time (AKDT) Temp. Windchill Dew Point Humidity Pressure Visibility Wind Dir Wind Speed Gust Speed Precip Events Conditions
12:53 AM 28.0 °F 21.7 °F 25.0 °F 88% 29.75 in 10.0 mi ENE 5.8 mph - 0.00 in   Overcast
1:53 AM 28.0 °F 22.8 °F 25.0 °F 88% 29.76 in 9.0 mi ENE 4.6 mph - 0.00 in   Overcast
2:53 AM 28.0 °F 21.7 °F 25.0 °F 88% 29.78 in 10.0 mi ENE 5.8 mph - N/A   Overcast
3:50 AM 28.4 °F 19.7 °F 24.8 °F 86% 29.79 in 7.0 mi ENE 9.2 mph - N/A   Overcast
3:53 AM 28.0 °F 18.6 °F 25.0 °F 88% 29.80 in 5.0 mi ENE 10.4 mph - N/A   Overcast
4:05 AM 28.4 °F 19.1 °F 26.6 °F 93% 29.79 in 2.5 mi ENE 10.4 mph - N/A   Overcast
4:16 AM 28.4 °F 19.7 °F 24.8 °F 86% 29.80 in 0.8 mi East 9.2 mph - N/A   Mist
4:53 AM 26.1 °F 16.2 °F 24.1 °F 92% 29.81 in 0.8 mi ENE 10.4 mph - N/A   Mist
5:53 AM 27.0 °F 17.3 °F 24.1 °F 89% 29.81 in 0.2 mi NE 10.4 mph - N/A Fog Light Freezing Fog
6:53 AM 27.0 °F 18.0 °F 25.0 °F 92% 29.83 in 0.5 mi NE 9.2 mph - N/A Fog Light Freezing Fog
7:03 AM 26.6 °F 16.8 °F 24.8 °F 93% 29.84 in 1.0 mi NE 10.4 mph - N/A   Overcast
7:08 AM 26.6 °F 17.5 °F 24.8 °F 93% 29.84 in 3.0 mi NE 9.2 mph - N/A   Overcast
7:18 AM 26.6 °F 18.2 °F 24.8 °F 93% 29.84 in 5.0 mi NE 8.1 mph - N/A   Overcast
7:53 AM 27.0 °F 17.3 °F 25.0 °F 92% 29.86 in 10.0 mi ENE 10.4 mph - N/A   Overcast
8:53 AM 26.1 °F 17.6 °F 24.1 °F 92% 29.86 in 10.0 mi NE 8.1 mph - N/A   Overcast
9:19 AM 26.6 °F 17.5 °F 23.0 °F 86% 29.86 in 10.0 mi NE 9.2 mph - N/A   Overcast
9:53 AM 26.1 °F 15.6 °F 23.0 °F 88% 29.86 in 6.0 mi ENE 11.5 mph - N/A   Overcast
10:03 AM 26.6 °F 16.2 °F 23.0 °F 86% 29.86 in 1.5 mi NE 11.5 mph - N/A   Overcast
10:13 AM 26.6 °F 15.7 °F 23.0 °F 86% 29.85 in 0.5 mi NE 12.7 mph - N/A Fog Light Freezing Fog
10:53 AM 26.1 °F 14.5 °F 23.0 °F 88% 29.86 in 0.5 mi NE 13.8 mph - N/A Fog Light Freezing Fog
11:46 AM 24.8 °F 12.9 °F 21.2 °F 86% 29.86 in 1.2 mi NE 13.8 mph - N/A   Overcast
11:53 AM 25.0 °F 13.1 °F 21.9 °F 88% 29.87 in 1.0 mi NE 13.8 mph - N/A   Overcast
12:01 PM 24.8 °F 14.0 °F 21.2 °F 86% 29.87 in 0.8 mi NE 11.5 mph - N/A   Overcast
12:16 PM 24.8 °F 12.9 °F 21.2 °F 86% 29.86 in 1.5 mi ENE 13.8 mph - N/A   Overcast
12:37 PM 23.0 °F 11.7 °F 21.2 °F 93% 29.86 in 3.0 mi ENE 11.5 mph - N/A   Overcast
12:53 PM 24.1 °F 13.7 °F 21.0 °F 88% 29.88 in 10.0 mi ENE 10.4 mph - N/A   Overcast
1:13 PM 24.8 °F 14.0 °F 23.0 °F 93% 29.87 in 2.5 mi ENE 11.5 mph - N/A   Overcast
1:16 PM 26.6 °F 16.2 °F 23.0 °F 86% 29.87 in 1.2 mi ENE 11.5 mph - N/A   Overcast
1:25 PM 26.6 °F 15.2 °F 24.8 °F 93% 29.86 in 0.8 mi ENE 13.8 mph - N/A   Overcast
1:42 PM 26.6 °F 15.2 °F 24.8 °F 93% 29.87 in 2.0 mi ENE 13.8 mph - N/A   Overcast
1:51 PM 28.4 °F 16.6 °F 24.8 °F 86% 29.86 in 5.0 mi ENE 16.1 mph - N/A   Overcast
2:46 PM 28.4 °F 15.1 °F 26.6 °F 93% 29.84 in 10.0 mi NE 20.7 mph - N/A   Overcast
2:53 PM 28.0 °F 14.6 °F 26.1 °F 92% 29.84 in 10.0 mi ENE 20.7 mph - N/A   Overcast
3:53 PM 28.9 °F 15.1 °F 26.1 °F 89% 29.83 in 10.0 mi ENE 23.0 mph - N/A   Overcast
4:28 PM 28.4 °F 14.4 °F 26.6 °F 93% 29.81 in 10.0 mi ENE 23.0 mph - N/A   Overcast
4:53 PM 28.9 °F 15.4 °F 26.1 °F 89% 29.81 in 10.0 mi ENE 21.9 mph - N/A   Overcast
5:18 PM 28.4 °F 14.1 °F 26.6 °F 93% 29.79 in 8.0 mi ENE 24.2 mph 31.1 mph 0.00 in Rain Light Freezing Rain
5:53 PM 30.0 °F 16.6 °F 27.0 °F 88% 29.79 in 6.0 mi ENE 23.0 mph - 0.00 in Rain Light Freezing Rain
6:53 PM 30.0 °F 16.6 °F 27.0 °F 88% 29.77 in 8.0 mi ENE 23.0 mph 31.1 mph 0.00 in Rain Light Freezing Rain
7:48 PM 30.2 °F 17.4 °F 28.4 °F 93% 29.75 in 10.0 mi East 20.7 mph 27.6 mph 0.00 in Rain Light Freezing Rain
7:51 PM 30.2 °F 16.5 °F 28.4 °F 93% 29.75 in 10.0 mi ENE 24.2 mph 28.8 mph 0.00 in Rain Light Freezing Rain
7:53 PM 30.9 °F 17.8 °F 28.0 °F 89% 29.75 in 10.0 mi ENE 23.0 mph 28.8 mph 0.00 in Rain Light Freezing Rain
8:01 PM 30.2 °F 16.2 °F 28.4 °F 93% 29.75 in 10.0 mi ENE 25.3 mph - 0.00 in Rain Light Freezing Rain
8:30 PM 30.2 °F 16.8 °F 26.6 °F 86% 29.74 in 10.0 mi ENE 23.0 mph 28.8 mph 0.00 in Rain Light Freezing Rain
8:53 PM 30.0 °F 16.9 °F 27.0 °F 88% 29.74 in 10.0 mi East 21.9 mph 28.8 mph 0.00 in Rain Light Freezing Rain
9:00 PM 30.2 °F 16.5 °F 26.6 °F 86% 29.73 in 10.0 mi East 24.2 mph 28.8 mph 0.00 in Rain Light Freezing Rain
9:18 PM 30.2 °F 17.1 °F 26.6 °F 86% 29.73 in 10.0 mi East 21.9 mph - 0.00 in Rain Light Freezing Rain
9:53 PM 30.9 °F 18.7 °F 28.0 °F 89% 29.72 in 10.0 mi East 19.6 mph - 0.00 in Rain Light Freezing Rain
10:53 PM 30.9 °F 18.7 °F 28.0 °F 89% 29.70 in 10.0 mi East 19.6 mph - 0.00 in Rain Light Freezing Rain
11:19 PM 30.2 °F 17.8 °F 28.4 °F 93% 29.69 in 10.0 mi East 19.6 mph - 0.00 in   Overcast
11:31 PM 32.0 °F 20.5 °F 28.4 °F 87% 29.69 in 10.0 mi East 18.4 mph 25.3 mph 0.00 in   Overcast
11:46 PM 32.0 °F 19.8 °F 28.4 °F 87% 29.68 in 10.0 mi East 20.7 mph - 0.00 in   Overcast
11:53 PM 30.9 °F 19.1 °F 28.9 °F 92% 29.69 in 10.0 mi East 18.4 mph - 0.00 in   Overcast